[[{"header":{"parameterUnit":"m.s-1","parameterCategory":1,"la1":30.2991,"la2":30.254,"lo1":-89.0895,"lo2":-89.0444,"dy":0.0017,"dx":0.0017,"nx":28,"ny":28,"refTime":"2024-03-31T21:00:00:Z","depth":0,"parameterNumber":2,"parameterNumberName":"U-component_of_WINDS"},"data":[0,0,0,0,0,0,0,0,0,0,0,0,0,0,0,0,0,0,0,0,0,0,0,0,0,0,0,0,0,0,0,0,0,0,0,0,0,0,0,0,0,0,0,0,0,0,0,0,0,0,0,0,0,0,0,0,0,0,-2.8265,-2.8265,0,-2.8266,-2.8266,-2.8266,-2.8229,-2.8228,-2.8227,-2.8226,-2.8229,-2.823,-2.8231,0,0,0,0,0,0,0,0,0,0,0,0,0,-2.8232,-2.8233,-2.8265,-2.8265,-2.8265,-2.8266,-2.8266,-2.8266,-2.823,-2.8228,-2.8227,-2.8226,-2.8229,-2.823,-2.8231,0,0,0,0,0,0,0,0,0,0,0,0,0,-2.8241,-2.8233,-2.8265,-2.8247,-2.8245,-2.8266,-2.8266,-2.8266,-2.823,-2.8228,-2.8227,-2.8225,-2.8228,-2.823,-2.8231,-2.827,0,0,-2.8236,-2.8236,0,0,0,0,0,0,0,0,-2.8241,-2.8243,-2.8249,-2.8248,-2.8246,-2.8246,-2.8256,-2.8268,-2.823,-2.8236,-2.8226,-2.8225,-2.8236,-2.8237,-2.824,-2.827,-2.827,-2.8236,-2.8237,-2.8237,-2.8238,0,0,0,0,0,0,0,-2.824,-2.8242,-2.8265,-2.8249,-2.8248,-2.8239,-2.8239,-2.8258,-2.8244,-2.8235,-2.8232,-2.8233,-2.8235,-2.8239,-2.824,-2.827,-2.8236,-2.8237,-2.8238,-2.8239,-2.8334,-2.8335,0,0,0,0,0,0,-2.8242,-2.8242,-2.8265,-2.8266,-2.824,-2.8241,-2.8241,-2.8248,-2.8244,-2.8242,-2.8234,-2.8231,-2.8237,-2.8238,-2.824,-2.8285,-2.8237,-2.8239,-2.824,-2.8332,-2.8334,-2.8336,0,0,0,0,0,0,-2.8241,-2.8244,-2.8265,-2.8253,-2.8255,-2.8243,-2.8251,-2.8248,-2.8252,-2.8243,-2.8241,-2.8241,-2.8236,-2.8238,-2.8263,-2.8285,-2.8239,-2.8241,-2.833,-2.8333,-2.8335,-2.8377,0,0,0,0,0,0,-2.8241,-2.8244,-2.8258,-2.8254,-2.8256,-2.8288,-2.8253,-2.825,-2.8255,-2.8251,-2.8249,-2.8247,-2.8235,-2.8261,-2.8265,-2.8286,-2.8242,-2.8328,-2.8331,-2.8334,-2.8374,-2.8381,-2.8387,0,0,0,0,0,-2.824,-2.827,-2.8259,-2.8262,-2.8273,-2.8289,-2.829,-2.8276,-2.8257,-2.8271,-2.8266,-2.8247,-2.8283,-2.8264,-2.8268,-2.829,-2.8327,-2.8331,-2.8334,-2.8371,-2.8379,-2.8386,0,0,0,0,0,0,-2.8277,-2.8269,-2.8257,-2.8287,-2.8289,-2.8283,-2.83,-2.8285,-2.8293,-2.8289,-2.8271,-2.8271,-2.8299,-2.8297,-2.8277,-2.8328,-2.8301,-2.8306,-2.8328,-2.8336,-2.8342,-2.8342,-2.8243,0,0,0,0,0,-2.829,-2.8303,-2.8295,-2.8322,-2.8324,-2.8312,-2.8319,-2.8307,-2.8309,-2.831,-2.8306,-2.8309,-2.832,-2.8328,-2.8339,-2.8374,-2.8373,-2.8392,-2.8398,-2.8403,-2.8407,-2.8426,-2.8434,-2.8348,-2.8348,-2.8348,0,0,-2.8314,-2.8311,-2.832,-2.833,-2.833,-2.8345,-2.8313,-2.833,-2.8341,-2.8312,-2.8335,-2.8333,-2.8335,-2.8366,-2.8379,-2.8365,-2.8431,-2.8408,-2.8413,-2.8413,-2.8431,-2.8439,-2.8446,-2.8351,-2.835,-2.835,0,0,-2.8366,-2.8365,-2.8388,-2.8389,-2.839,-2.8383,-2.8388,-2.8385,-2.8382,-2.8406,-2.8385,-2.8398,-2.8419,-2.8421,-2.8425,-2.8481,-2.8464,-2.8485,-2.8518,-2.8537,-2.8544,-2.855,-2.8569,-2.8577,-2.8489,-2.8489,-2.8489,0,-2.8396,-2.8416,-2.8401,-2.8419,-2.8424,-2.84,-2.8424,-2.8426,-2.8431,-2.8435,-2.842,-2.8446,-2.8446,-2.8477,-2.849,-2.8495,-2.8501,-2.8484,-2.8544,-2.855,-2.8555,-2.8574,-2.8581,-2.8492,-2.8492,-2.8491,-2.8491,0,-2.8454,-2.8469,-2.8487,-2.8492,-2.8499,-2.852,-2.8509,-2.8518,-2.8508,-2.8502,-2.8527,-2.8526,-2.8536,-2.8543,-2.8532,-2.8573,-2.8564,-2.8547,-2.8519,-2.8566,-2.8583,-2.859,-2.8495,-2.8494,-2.8494,-2.8493,0,0,-2.8527,-2.8525,-2.8532,-2.8534,-2.8535,-2.8546,-2.8567,-2.8577,-2.8585,-2.859,-2.8607,-2.8626,-2.8611,-2.8616,-2.8605,-2.8622,-2.8666,-2.8603,-2.8603,-2.8614,-2.8711,-2.8723,-2.8731,-2.8656,-2.8657,-2.8658,-2.8711,0,-2.8577,-2.861,-2.8598,-2.8633,-2.8647,-2.8626,-2.8644,-2.8647,-2.8643,-2.8655,-2.8651,-2.8664,-2.8643,-2.8646,-2.8661,-2.8657,-2.8685,-2.8654,-2.8671,-2.8672,-2.867,-2.874,-2.8753,-2.8802,-2.8717,-2.8718,-2.8719,0,-2.8638,-2.8646,-2.8682,-2.8681,-2.8687,-2.8703,-2.8712,-2.8724,-2.8727,-2.8723,-2.873,-2.8716,-2.8737,-2.8711,-2.874,-2.8719,-2.8726,-2.8726,-2.8727,-2.8727,-2.8697,-2.8741,-2.8817,-2.8825,-2.873,-2.8729,-2.8728,0,-2.8687,-2.8707,-2.8731,-2.8734,-2.8734,-2.8746,-2.8747,-2.8749,-2.8756,-2.8764,-2.8769,-2.878,-2.8786,-2.8795,-2.8785,-2.8767,-2.8816,-2.8789,-2.8813,-2.8813,-2.8823,-2.8822,-2.89,-2.8829,-2.8829,-2.8829,-2.8829,0,-2.8743,-2.8766,-2.8753,-2.8768,-2.8794,-2.8781,-2.8806,-2.8805,-2.8807,-2.8822,-2.8805,-2.8819,-2.8807,-2.882,-2.8813,-2.8838,-2.8841,-2.8839,-2.8836,-2.884,-2.884,-2.8843,-2.8839,-2.8831,-2.8831,-2.883,-2.883,0,-2.8801,-2.8794,-2.8819,-2.8817,-2.8818,-2.8837,-2.8835,-2.885,-2.8845,-2.8864,-2.8868,-2.8862,-2.8877,-2.8869,-2.8885,-2.888,-2.8912,-2.8906,-2.8911,-2.8909,-2.8933,-2.8931,-2.9015,-2.9025,-2.8949,-2.895,-2.8951,0,-2.8837,-2.8854,-2.8855,-2.8863,-2.8865,-2.8879,-2.8887,-2.8876,-2.8884,-2.8891,-2.8904,-2.8918,-2.8928,-2.8954,-2.8951,-2.8963,-2.8956,-2.8985,-2.8958,-2.8961,-2.8956,-2.8955,-2.8956,-2.899,-2.8991,-2.8992,-2.8992,0,-2.8901,-2.8897,-2.8908,-2.8918,-2.8928,-2.8935,-2.8942,-2.895,-2.8939,-2.895,-2.8965,-2.8973,-2.899,-2.9004,-2.9015,-2.9016,-2.9003,-2.9001,-2.9007,-2.901,-2.9012,-2.9011,-2.8925,-2.8999,-2.8998,-2.8998,-2.8997,-2.8997,-2.8948,-2.8963,-2.8966,-2.8979,-2.8983,-2.899,-2.9003,-2.9001,-2.9013,-2.9026,-2.9019,-2.9037,-2.9042,-2.9055,-2.9059,-2.9073,-2.9062,-2.9071,-2.9073,-2.9075,-2.9078,-2.9011,-2.9075,-2.9075,-2.9075,-2.9075,-2.9075,0,-2.901,-2.9012,-2.9024,-2.9034,-2.9045,-2.9032,-2.9039,-2.9049,-2.9065,-2.907,-2.9081,-2.9099,-2.9114,-2.9112,-2.9126,-2.9137,-2.9132,-2.9141,-2.914,-2.914,-2.9088,-2.9081,-2.9146,-2.9146,-2.9146,-2.9146,-2.9146,-2.9146,-2.9044,-2.9068,-2.9064,-2.9091,-2.9092,-2.9109,-2.9114,-2.9121,-2.9125,-2.9146,-2.9158,-2.9157,-2.916,-2.9174,-2.9187,-2.9186,-2.9191,-2.9203,-2.92,-2.9151,-2.9144,-2.9137,-2.913,-2.9205,-2.9205,-2.9251,-2.9252,-2.9252]},{"header":{"parameterUnit":"m.s-1","parameterCategory":1,"la1":30.2991,"la2":30.254,"lo1":-89.0895,"lo2":-89.0444,"dy":0.0017,"dx":0.0017,"nx":28,"ny":28,"refTime":"2024-03-31T21:00:00:Z","depth":0,"parameterNumber":3,"parameterNumberName":"V-component_of_WINDS"},"data":[0,0,0,0,0,0,0,0,0,0,0,0,0,0,0,0,0,0,0,0,0,0,0,0,0,0,0,0,0,0,0,0,0,0,0,0,0,0,0,0,0,0,0,0,0,0,0,0,0,0,0,0,0,0,0,0,0,0,3.9123,3.9123,0,3.9096,3.9096,3.9096,3.9122,3.9123,3.9124,3.9125,3.9093,3.9091,3.9089,0,0,0,0,0,0,0,0,0,0,0,0,0,3.9195,3.9193,3.9123,3.9123,3.9123,3.9096,3.9096,3.9096,3.9121,3.9123,3.9124,3.9125,3.9093,3.9091,3.9089,0,0,0,0,0,0,0,0,0,0,0,0,0,3.9165,3.9193,3.9123,3.9132,3.9133,3.9096,3.9096,3.9096,3.9121,3.9123,3.9124,3.9126,3.9094,3.9091,3.9089,3.9041,0,0,3.908,3.9079,0,0,0,0,0,0,0,0,3.9167,3.9163,3.9131,3.9132,3.9132,3.9114,3.911,3.9077,3.9121,3.9125,3.9125,3.9126,3.9098,3.9095,3.9087,3.9039,3.9038,3.908,3.9078,3.9077,3.9077,0,0,0,0,0,0,0,3.9169,3.9164,3.9112,3.9131,3.9131,3.9137,3.9135,3.9104,3.9103,3.9125,3.9127,3.9124,3.9099,3.9089,3.9086,3.9037,3.908,3.9078,3.9076,3.9075,3.8953,3.8951,0,0,0,0,0,0,3.9171,3.9166,3.9113,3.9112,3.9154,3.9135,3.9132,3.9118,3.9104,3.9103,3.9122,3.9125,3.9093,3.9089,3.9085,3.903,3.9077,3.9075,3.9073,3.8954,3.8952,3.8951,0,0,0,0,0,0,3.9172,3.9166,3.9114,3.9139,3.9133,3.9132,3.9116,3.9117,3.9107,3.9102,3.9101,3.9113,3.9094,3.9089,3.9053,3.903,3.9074,3.9071,3.8956,3.8954,3.8952,3.8919,0,0,0,0,0,0,3.9174,3.9166,3.9148,3.9139,3.9132,3.9083,3.9115,3.9115,3.9103,3.9106,3.9093,3.9092,3.9095,3.9057,3.905,3.9027,3.9069,3.8958,3.8955,3.8952,3.8922,3.8916,3.891,0,0,0,0,0,3.9176,3.9138,3.9147,3.914,3.9109,3.9081,3.9077,3.9083,3.9101,3.9083,3.908,3.9092,3.9033,3.9053,3.9045,3.9021,3.896,3.8956,3.8953,3.8925,3.8917,3.8911,0,0,0,0,0,0,3.9142,3.9137,3.9146,3.9104,3.9093,3.9086,3.9063,3.9074,3.9056,3.906,3.9066,3.9063,3.9026,3.9019,3.9041,3.8975,3.8999,3.8994,3.8981,3.8973,3.8968,3.897,3.9067,0,0,0,0,0,3.913,3.9109,3.9105,3.9068,3.9062,3.9064,3.9051,3.9057,3.9046,3.9041,3.9035,3.9022,3.9001,3.8987,3.8967,3.8922,3.892,3.8901,3.8896,3.8891,3.8886,3.8865,3.8857,3.8939,3.8939,3.8939,0,0,3.9104,3.9098,3.9084,3.9061,3.9053,3.9031,3.9059,3.9034,3.9017,3.9036,3.9003,3.8998,3.8985,3.8945,3.8927,3.8938,3.8864,3.8886,3.8882,3.888,3.886,3.8852,3.8846,3.8936,3.8937,3.8937,0,0,3.9045,3.9038,3.9009,3.9001,3.899,3.8992,3.8985,3.8977,3.8975,3.8942,3.8957,3.8937,3.89,3.8891,3.8881,3.8824,3.8835,3.8817,3.8786,3.8765,3.8758,3.8753,3.8734,3.8727,3.8812,3.8812,3.8812,0,3.9014,3.8982,3.8991,3.8966,3.8956,3.8975,3.8945,3.8937,3.8919,3.8912,3.8926,3.8882,3.8874,3.8834,3.882,3.8811,3.8804,3.8818,3.8759,3.8753,3.8748,3.873,3.8723,3.881,3.881,3.881,3.8811,0,3.8945,3.8923,3.89,3.8886,3.8873,3.8845,3.8851,3.8837,3.8844,3.8845,3.8812,3.8804,3.8784,3.8775,3.878,3.8736,3.8744,3.8758,3.8782,3.8738,3.8722,3.8715,3.8807,3.8808,3.8808,3.8809,0,0,3.8862,3.8856,3.8848,3.8843,3.8834,3.8817,3.8791,3.8774,3.8763,3.875,3.8729,3.87,3.8714,3.8703,3.8708,3.869,3.8648,3.8707,3.8707,3.8697,3.8601,3.8591,3.8583,3.8656,3.8654,3.8653,3.8603,0,3.8805,3.8762,3.8771,3.8728,3.8709,3.8729,3.8706,3.8698,3.8699,3.8682,3.8682,3.8662,3.8681,3.8675,3.8658,3.8657,3.8629,3.866,3.8636,3.8636,3.864,3.8574,3.8563,3.8515,3.8596,3.8595,3.8594,0,3.8732,3.8721,3.8677,3.8675,3.8667,3.8647,3.8634,3.8618,3.861,3.8611,3.8602,3.8611,3.8586,3.8611,3.8577,3.8599,3.859,3.8588,3.8586,3.8585,3.8613,3.8572,3.85,3.8494,3.8584,3.8584,3.8585,0,3.8679,3.8652,3.8624,3.8619,3.8614,3.86,3.8597,3.8591,3.8582,3.857,3.8564,3.8548,3.854,3.8528,3.8533,3.8551,3.8499,3.8524,3.8501,3.85,3.8489,3.8489,3.8416,3.8481,3.8481,3.8481,3.8481,0,3.8615,3.8588,3.86,3.8582,3.8554,3.8565,3.8535,3.8534,3.853,3.8512,3.8527,3.851,3.8519,3.8503,3.8507,3.848,3.8475,3.8476,3.8478,3.8475,3.8476,3.847,3.8474,3.8479,3.848,3.848,3.8481,0,3.855,3.8557,3.8528,3.8527,3.8527,3.8506,3.8505,3.8489,3.8492,3.847,3.8465,3.8469,3.8452,3.8457,3.8436,3.8439,3.8406,3.841,3.8409,3.8411,3.8388,3.839,3.8308,3.8299,3.8369,3.8368,3.8368,0,3.8509,3.849,3.8488,3.8479,3.8476,3.846,3.8452,3.8462,3.8452,3.8444,3.8429,3.8414,3.8402,3.8373,3.8373,3.8359,3.8364,3.8337,3.8362,3.8362,3.8366,3.8368,3.8367,3.8332,3.8331,3.833,3.833,0,3.8437,3.8442,3.843,3.842,3.841,3.8401,3.8394,3.8385,3.8396,3.8384,3.8368,3.8359,3.8341,3.8325,3.8313,3.8309,3.8322,3.8322,3.8316,3.8314,3.8315,3.8316,3.8397,3.8324,3.8324,3.8325,3.8325,3.8325,3.8384,3.8369,3.8367,3.8353,3.835,3.8344,3.833,3.8332,3.8319,3.8307,3.8313,3.8295,3.829,3.8275,3.8271,3.8256,3.8267,3.8258,3.8256,3.8254,3.8252,3.8317,3.8254,3.8254,3.8254,3.8254,3.8254,0,3.8314,3.8315,3.8302,3.8294,3.8284,3.8298,3.8292,3.8282,3.8267,3.8262,3.8251,3.8233,3.822,3.822,3.8208,3.8196,3.8202,3.8193,3.8194,3.8194,3.8242,3.8249,3.8189,3.8189,3.8189,3.8189,3.8189,3.8189,3.8277,3.8253,3.8258,3.8233,3.8233,3.8217,3.8213,3.8208,3.8205,3.8185,3.8175,3.8176,3.8174,3.8162,3.815,3.8151,3.8146,3.8135,3.8138,3.8183,3.819,3.8196,3.8203,3.8134,3.8134,3.8091,3.8091,3.809]}]]